This is the latest recevied weather packets stored in our database for station/object KB1JLI. If no packets are shown the sender has not sent any weather packets the latest 10 day(s).
| Time | Temp. | Humidity | Pressure | Rain* | Wind** | Luminosity | Snow |
|---|---|---|---|---|---|---|---|
| 1777991388 | 21.67° C | 53% | 1010 hPa | 0 mm | - | 653 W/m² | - |
| 1777991086 | 20.56° C | 56% | 1009.7 hPa | 0 mm | - | 653 W/m² | - |
| 1777990783 | 20.56° C | 57% | 1009.5 hPa | 0 mm | - | 360 W/m² | - |
| 1777990480 | 20.56° C | 56% | 1009.4 hPa | 0 mm | - | 186 W/m² | - |
| 1777989873 | 20° C | 59% | 1009.6 hPa | 0 mm | - | 142 W/m² | - |
| 1777989570 | 20.56° C | 58% | 1009.7 hPa | 0 mm | - | 389 W/m² | - |
| 1777989266 | 19.44° C | 61% | 1009.6 hPa | 0 mm | - | 521 W/m² | - |
| 1777988963 | 19.44° C | 62% | 1009.7 hPa | 0 mm | - | 483 W/m² | - |
| 1777988660 | 18.33° C | 65% | 1009.9 hPa | 0 mm | - | 450 W/m² | - |
| 1777988356 | 17.78° C | 67% | 1009.7 hPa | 0 mm | - | 190 W/m² | - |
| 1777988054 | 18.33° C | 65% | 1009.8 hPa | 0 mm | - | 127 W/m² | - |
| 1777987749 | 18.89° C | 60% | 1010 hPa | 0 mm | - | 45 W/m² | - |
| 1777987446 | 18.89° C | 59% | 1010.1 hPa | 0 mm | - | 56 W/m² | - |
| 1777987144 | 18.89° C | 60% | 1009.9 hPa | 0 mm | - | 82 W/m² | - |
| 1777986840 | 19.44° C | 58% | 1009.8 hPa | 0 mm | - | 159 W/m² | - |
| 1777986538 | 19.44° C | 58% | 1009.7 hPa | 0 mm | - | 499 W/m² | - |
| 1777986236 | 18.89° C | 59% | 1010 hPa | 0 mm | - | 409 W/m² | - |
| 1777985933 | 18.89° C | 60% | 1010 hPa | 0 mm | - | 375 W/m² | - |
| 1777985631 | 18.33° C | 62% | 1009.8 hPa | 0 mm | - | 379 W/m² | - |
| 1777985327 | 18.33° C | 61% | 1009.8 hPa | 0 mm | - | 379 W/m² | - |
| 1777985024 | 17.78° C | 62% | 1009.6 hPa | 0 mm | - | 431 W/m² | - |
| 1777984720 | 17.78° C | 63% | 1009.9 hPa | 0 mm | - | 218 W/m² | - |
| 1777984417 | 18.33° C | 62% | 1009.9 hPa | 0 mm | - | 237 W/m² | - |
| 1777984112 | 18.33° C | 61% | 1009.9 hPa | 0 mm | - | 257 W/m² | - |
| 1777983810 | 17.78° C | 62% | 1010 hPa | 0 mm | - | 391 W/m² | - |
* Rain latest hour (hover to see other rain measurements)
** Current wind speed in m/s (hover to see current wind gust speed)